285P/LINEAR (2023)

Japanese version
Home page
Updated on September 29, 2022

---------------------------------------------------------------------

* Profile

* Pictures

* Orbital Elements

Epoch 2022 Aug. 9.0 TT = JDT 2459800.5
T 2023 Jan. 12.29328 TT                                 Rudenko
q   1.7192640            (2000.0)            P               Q
n   0.10296956     Peri.  178.43304     +0.99738886     -0.05971096
a   4.5081339      Node   185.50784     +0.06079914     +0.99780869
e   0.6186307      Incl.   25.03772     +0.03897341     -0.02850308
P   9.57
From 771 observations 2003 Sept. 19-2022 Sept. 5, mean residual 0".7.

* Magnitudes Graph

        m1 = 16.0 + 5 log d + 10.0 log r           [    ,-165]  (             - 2022 July 31)
        m1 = -4.5 + 5 log d + 40   log r(t + 400)  [-165, -15]  (2022 July 31 - 2022 Dec. 28)
        m1 = 16.0 + 5 log d + 10.0 log r           [ -15,    ]  (2022 Dec. 28 -             )

        * Gray curve is:  m1 = 16.0 + 5 log d + 10.0 log r

---------------------------------------------------------------------

The orbital elements are published on M.P.E.C. 2022-R139.
The magnitudes graphs are made with Comet for Windows.

---------------------------------------------------------------------

Copyright(C) Seiichi Yoshida (comet@aerith.net). All rights reserved.